CAPE
2 3 4 4 4 3 2 3 2 5 10 9 11 1 0 3 9 0 3 24 0 0
3 3 4 3 2 2 2 7 5 5 5 1 2 3 0 0 2 13 8 28 1 0
4 4 6 9 9 1 2 3 6 9 10 12 3 1 0 0 1 31 1 4 0 0
5 6 7 12 8 2 0 2 3 5 4 1 8 19 4 5 0 1 0 5 1 1
6 4 6 4 5 7 0 0 0 2 0 3 10 5 15 5 0 0 1 1 1 1
4 3 0 1 2 0 0 0 0 0 0 0 0 0 0 0 0 0 1 1 0 1
1 1 0 0 0 1 0 0 0 0 0 0 0 0 0 0 0 0 1 1 1 0
0 0 0 0 0 0 0 0 0 0 0 0 0 0 0 0 0 0 0 0 0 0
0 0 0 0 0 0 0 0 0 0 0 0 0 2 3 0 0 0 0 0 0 0
0 0 0 0 0 0 0 0 0 1 0 0 0 5 4 1 0 0 0 0 0 0
0 0 0 0 0 0 0 0 0 0 0 1 4 8 6 2 0 0 0 0 0 0
0 0 0 0 0 0 0 0 0 0 0 0 2 16 5 0 0 0 0 0 0 0
0 0 0 0 0 0 0 0 0 0 0 0 0 15 10 1 0 0 0 0 0 1
0 0 0 0 0 0 0 0 0 0 0 0 0 5 11 6 0 0 0 0 0 0
CIN
-0 -0 -0 -0 -0 -0 -0 -0 -0 -1 -2 -4 -4 -6 -1 -10 -2 -0 -4 -1 -0 -1
-0 -0 -0 -0 -0 -0 -0 -0 -0 -1 -2 -2 -0 -0 -0 -0 -0 -2 -2 -1 -1 -1
-0 -0 -0 -0 -0 -0 -0 -0 -0 -0 -0 -1 -3 -2 -0 -0 -8 -1 -1 -0 -6 -0
-0 -0 -0 -0 -0 -0 -0 -0 -0 -0 -2 -0 -5 -1 -1 -4 -0 -0 -0 -3 -9 -8
-0 -0 -0 -0 -0 -0 -0 -0 -0 -0 -0 -4 -1 -2 -1 -2 -0 -0 -0 -0 -0 -0
-0 -0 -0 -0 -0 -0 -0 -0 -0 -0 -0 -0 -0 -0 -0 -0 -0 -0 -0 -0 -0 -0
-0 -0 -0 -0 -0 -0 -0 -0 -0 -0 -0 -0 -0 -0 -0 -0 -0 -0 -0 -0 -0 -0
-0 -0 -0 -0 -0 -0 -0 -0 -0 -0 -0 -0 -0 -0 -0 -0 -0 -0 -0 -0 -0 -0
-0 -0 -0 -0 -0 -0 -0 -0 -0 -0 -0 -0 -0 -0 -0 -0 -0 -0 -0 -0 -0 -0
-0 -0 -0 -0 -0 -0 -0 -0 -0 -0 -0 -0 -0 -0 -0 -0 -0 -0 -0 -0 -0 -0
-0 -0 -0 -0 -0 -0 -0 -0 -0 -0 -0 -0 -0 -0 -0 -0 -0 -0 -0 -0 -0 -0
-0 -0 -0 -0 -0 -0 -0 -0 -0 -0 -0 -0 -0 -0 -0 -0 -0 -0 -0 -0 -0 -0
-0 -0 -0 -0 -0 -0 -0 -0 -0 -0 -0 -0 -0 -0 -0 -0 -0 -0 -0 -0 -0 -0
-0 -0 -0 -0 -0 -0 -0 -0 -0 -0 -0 -0 -0 -0 -0 -0 -0 -0 -0 -0 -0 -0
Wind_Speed
16 11 12 15 13 12 12 12 14 14 13 11 11 10 9 9 10 12 13 20 19 14
15 15 15 18 17 13 15 13 15 16 14 14 16 18 17 13 15 13 13 16 14 14
15 16 15 15 18 18 15 15 15 16 15 15 15 15 12 9 10 11 11 10 15 13
15 15 15 15 15 14 14 14 14 15 14 14 15 13 13 13 10 14 11 10 15 17
15 14 14 15 14 13 14 13 14 14 13 13 11 10 10 10 9 13 10 11 9 10
14 14 14 14 13 12 11 12 13 13 12 12 12 11 9 9 11 12 12 10 11 10
14 14 13 13 12 11 8 8 9 11 12 12 12 10 11 12 11 12 8 8 10 10
13 12 12 11 11 10 8 6 4 3 6 10 9 9 12 12 11 10 9 9 11 10
12 12 12 12 11 11 11 10 7 6 4 3 1 9 14 12 9 11 13 12 12 12
12 11 12 12 12 13 13 12 13 12 10 10 9 18 16 14 10 11 12 13 14 11
12 11 12 12 13 13 12 15 14 14 13 12 12 24 24 22 14 14 14 13 13 14
10 10 11 13 13 11 12 14 14 14 15 14 14 23 26 20 12 16 15 14 10 10
9 9 10 11 12 11 9 12 11 15 15 17 17 27 26 20 11 15 11 13 13 20
9 7 9 9 10 10 11 12 14 16 16 17 17 21 27 24 11 9 10 10 9 10
Wind_Direction
288 281 278 271 267 264 258 254 251 251 250 249 247 244 241 239 234 228 222 234 212 215
289 282 277 275 268 261 257 252 251 249 247 246 246 239 237 235 235 223 228 222 205 218
292 287 282 275 271 259 252 246 249 246 241 237 240 249 248 248 255 233 228 221 200 206
300 298 293 286 289 259 250 241 242 241 242 242 245 236 232 232 232 247 218 211 198 204
306 307 299 295 289 284 253 236 235 237 231 237 241 243 249 237 235 241 236 189 174 167
315 315 309 305 303 295 274 250 233 226 224 230 235 223 232 254 234 241 244 189 188 163
324 324 321 315 315 313 304 272 242 228 222 220 222 218 224 228 234 231 198 162 150 150
327 328 330 333 330 330 335 337 324 279 235 228 222 221 219 213 181 154 126 118 122 122
334 340 341 339 347 2 4 6 13 24 25 26 132 198 179 149 140 129 122 113 103 108
339 344 349 354 0 13 19 21 24 30 37 50 62 84 91 102 100 105 106 114 110 105
347 350 358 6 13 12 27 34 32 32 36 51 67 85 88 83 85 85 84 82 96 109
348 355 4 14 13 16 29 39 39 37 39 45 49 60 72 74 73 77 72 76 84 107
342 4 10 17 16 21 29 43 42 46 44 48 51 54 66 71 63 73 76 75 72 85
346 1 12 20 21 21 36 43 47 47 35 42 49 54 60 65 69 74 76 77 69 69